Estación de San Felipe

Ultimos registro cada 15 minutos 35
Estación Fecha / Hora Temperatura Humedad Lluvia Velocidad Dirección Radiación Presion
35 San Felipe 10-05-2026 08:30 7,9 57,2 0 0 0 20,6 937,9
34 San Felipe 10-05-2026 08:15 6 66,2 0 0 0 76,9 937,8
33 San Felipe 10-05-2026 08:00 1,7 73,9 0 0 0 44,4 937,6
32 San Felipe 10-05-2026 07:45 1,2 72,8 0 0 0 5,6 937,6
31 San Felipe 10-05-2026 07:30 1,5 71,4 0 0 0 3,1 937,6
30 San Felipe 10-05-2026 07:15 1,9 71,6 0 0 0 0,6 937,5
29 San Felipe 10-05-2026 07:00 1,3 74,6 0 0 0 0,6 937,6
28 San Felipe 10-05-2026 06:45 1 77,3 0 0 0 0,6 937,6
27 San Felipe 10-05-2026 06:30 0,6 76,9 0 0 0 0,6 937,6
26 San Felipe 10-05-2026 06:15 0,8 76,1 0 0 0 0,6 937,5
25 San Felipe 10-05-2026 06:00 1,2 74,8 0 0 0 0,6 937,5
24 San Felipe 10-05-2026 05:45 1,3 76,3 0 0 0 0,6 937,4
23 San Felipe 10-05-2026 05:30 0,6 78,4 0 0 0 0,6 937,5
22 San Felipe 10-05-2026 05:15 0,6 76,9 0 0 0 0,6 937,6
21 San Felipe 10-05-2026 05:00 1,1 76,9 0 0 0 0,6 937,5
20 San Felipe 10-05-2026 04:45 1,1 77 0 0 0 0,6 937,6
19 San Felipe 10-05-2026 04:30 0,7 77,3 0 0 0 0,6 937,6
18 San Felipe 10-05-2026 04:15 0,8 77 0 0 0 0,6 937,5
17 San Felipe 10-05-2026 04:00 1 75,8 0 0 0 0,6 937,7
16 San Felipe 10-05-2026 03:45 1,6 74,5 0 0 0 0,6 937,8
15 San Felipe 10-05-2026 03:30 2 73,9 0 0 0 0,6 937,6
14 San Felipe 10-05-2026 03:15 1,9 74 0 0 0 0,6 937,6
13 San Felipe 10-05-2026 03:00 1,9 74,3 0 0 0 0,6 937,8
12 San Felipe 10-05-2026 02:45 2,5 72 0 0 0 0,6 937,8
11 San Felipe 10-05-2026 02:30 2,6 72,3 0 0 0 0,6 937,9
10 San Felipe 10-05-2026 02:15 2,8 71,9 0 0 0 0,6 938,2
9 San Felipe 10-05-2026 02:00 2,8 72,6 0 0 0 0,6 938,2
8 San Felipe 10-05-2026 01:45 2,5 74,8 0 0 0 0,6 938,3
7 San Felipe 10-05-2026 01:30 2,1 75,1 0 0 0 0,6 938,3
6 San Felipe 10-05-2026 01:15 2,7 74,1 0 0 0 0,6 938,4
5 San Felipe 10-05-2026 01:00 3,2 72 0 0 0 0,6 938,4
4 San Felipe 10-05-2026 00:45 3 72,3 0 0 0 0,6 938,6
3 San Felipe 10-05-2026 00:30 3,4 71,8 0 0 0 0,6 938,4
2 San Felipe 10-05-2026 00:15 4 71,9 0 0 0 0,6 938,5
1 San Felipe 10-05-2026 00:00 3,3 73,4 0 0 0 0,6 938,6